Torna al catalogo

MACSAT 2

M 2

AttivoComunicazioniPO
NORAD 20608·PAYLOAD·🇺🇸 United States

Lanciato May 9, 1990 da Vandenberg Space Force Base

Loading…

Prossimi Passaggi (prossime 24 ore)

TLE

AggiornatoSource: Space-Track

Epoca: Sep 14, 2026, 09:14 UTC

1 20608U 90043B   26257.38531649  .00000538  00000-0  63797-4 0  9995
2 20608  89.7518 242.4410 0079793 208.3914 151.2953 14.80820876951594

Traccia MACSAT 2 in tempo reale con AllMySat

Download on the App Store